Temp
18 17 17 17 16 16 16 16 16 16 16 16 15 15 14 12 12 12 12 13 13 13
17 17 17 17 17 16 16 16 16 16 15 15 15 16 14 12 11 12 13 13 13 12
17 17 17 17 17 17 17 16 16 15 15 15 15 16 14 12 12 12 12 13 12 12
17 17 17 17 18 17 17 17 16 15 14 14 14 14 13 13 12 12 12 12 12 12
16 16 16 16 17 16 16 16 17 16 14 13 14 13 13 12 12 12 12 12 12 12
12 14 15 16 17 15 15 15 16 15 14 14 13 13 13 13 12 12 12 12 12 12
6 11 14 15 16 15 15 15 15 15 15 15 15 14 13 13 12 12 12 12 12 12
4 6 12 13 14 14 14 15 15 15 15 14 15 13 13 13 12 12 12 12 12 12
2 3 4 8 12 13 14 14 14 14 14 13 12 12 12 12 12 12 12 12 12 12
1 2 2 2 4 6 9 11 12 12 12 11 11 12 12 12 12 12 12 11 11 11
-0 0 1 1 1 -0 1 2 2 4 5 5 6 9 12 12 11 11 11 10 11 11
-0 -1 -0 0 -0 1 0 -0 -1 -1 0 2 3 6 9 11 10 9 7 6 7 8
-2 -1 -1 -1 -1 -0 0 -1 0 -1 -0 -1 0 1 4 5 4 4 3 2 2 3
-3 -3 -3 -2 -0 -0 0 -0 -1 -1 -1 -1 -1 -0 1 2 1 -2 -3 -2 -1 -1
Height
694 694 698 703 706 708 713 717 722 728 733 739 744 748 752 754 758 760 761 764 765 768
687 690 693 696 699 703 708 713 716 723 728 735 740 744 747 751 754 756 758 761 762 766
676 681 686 691 693 696 702 708 714 718 724 730 735 738 743 746 750 752 755 758 760 763
674 678 678 681 685 688 696 701 707 713 718 723 730 734 738 741 746 748 752 755 757 760
673 677 677 677 680 686 690 696 700 707 714 719 725 729 733 737 740 743 747 750 753 756
676 677 679 675 679 683 687 693 699 704 710 715 721 725 729 732 735 738 742 745 747 751
682 678 678 677 678 681 685 690 695 701 707 712 717 721 724 728 731 734 737 740 742 744
689 682 679 680 678 679 682 687 694 699 704 709 713 716 720 724 727 730 733 736 739 741
697 691 686 681 683 683 682 687 692 697 701 705 708 713 716 720 723 726 729 731 734 736
705 702 694 690 682 684 686 686 690 695 700 704 706 711 713 717 720 722 725 727 730 733
718 714 709 704 695 698 693 692 693 696 700 704 706 706 710 713 717 720 722 725 727 729
727 724 719 713 703 705 701 701 700 704 704 706 708 708 705 707 712 716 720 722 724 726
740 732 732 726 723 716 706 717 712 717 708 714 713 710 708 708 710 713 718 722 723 724
748 743 740 734 723 723 722 719 731 721 718 717 724 717 716 714 716 722 723 725 724 726
Wind_Speed
32 37 37 36 30 33 34 35 38 34 35 34 31 26 25 25 24 26 27 27 26 28
31 34 34 37 36 34 34 35 38 38 35 32 30 27 26 26 26 27 27 26 27 29
36 39 38 37 36 35 34 32 34 35 36 33 33 29 28 26 26 25 27 27 28 25
29 30 38 39 38 38 35 34 32 35 34 33 31 29 29 28 27 26 28 29 30 31
10 23 32 33 37 36 36 35 33 34 33 31 28 32 30 30 29 30 27 29 29 30
17 2 16 31 33 32 33 33 32 31 30 27 28 29 30 30 31 31 31 31 29 29
27 17 4 20 28 31 32 33 33 29 27 26 25 25 29 30 30 29 28 27 29 28
30 22 10 9 24 29 31 33 31 28 25 22 21 21 27 27 27 25 25 25 26 25
30 31 21 15 2 23 31 30 27 25 23 22 20 23 23 22 21 23 25 25 25 22
34 30 32 25 23 17 12 16 19 19 19 20 18 21 21 19 20 23 22 20 19 19
31 30 27 27 33 29 25 21 19 16 13 9 5 15 21 20 20 19 16 15 17 18
33 31 30 30 33 35 36 34 30 27 20 13 11 1 13 23 22 20 15 11 11 14
29 30 26 25 27 33 39 31 35 32 32 28 20 13 9 18 21 23 19 14 10 6
29 29 25 25 29 29 30 30 26 31 34 34 29 26 15 13 17 18 21 19 18 15
Wind_Direction
219 204 205 206 197 197 201 207 213 213 216 213 216 223 228 213 214 216 215 216 205 192
223 205 204 207 210 202 206 209 211 212 213 212 214 225 220 216 214 209 209 213 211 199
214 209 205 204 207 208 208 206 206 210 213 212 214 222 213 217 211 210 211 213 199 189
218 208 197 203 208 208 206 206 207 209 207 208 209 216 213 212 209 208 212 211 204 207
224 210 197 196 206 206 204 205 203 206 208 203 204 214 210 206 208 206 204 210 212 214
24 296 205 198 204 202 199 199 200 202 204 201 205 204 210 218 209 212 214 216 217 215
7 9 259 204 203 197 194 195 193 195 196 203 213 220 215 211 212 212 216 223 219 221
9 14 37 185 186 186 187 187 186 184 192 201 209 211 210 208 211 216 218 225 228 227
15 21 29 43 121 171 173 177 178 185 188 191 196 206 206 207 216 218 219 222 226 230
23 21 31 33 55 60 78 140 149 163 173 172 182 198 201 204 214 211 215 221 228 226
21 26 33 43 52 40 56 73 78 102 125 145 179 196 194 195 205 201 193 198 206 207
35 28 33 38 53 57 53 56 60 61 63 62 39 321 191 195 185 171 159 164 179 191
25 48 32 42 51 64 68 62 64 56 64 53 50 47 148 163 150 143 136 122 103 127
33 30 40 46 60 64 68 62 61 62 65 66 57 61 69 103 104 86 83 87 88 74